DW9408 Weather Reports


Display with metric or nautical units.
time (UTC)temp
F
wind
direction
speed
MPH
gust
MPH
rain 1hr
in
rain 24hr
in
rain mn
in
humidity
%
barometer
mb
20260507194632 75 184 1.0 6.0 0.00 0.97 0.29 81 1007.1
20260507193620 74 182 4.0 9.0 0.00 0.97 0.29 79 1007.3
20260507193114 75 190 4.0 9.0 0.00 0.97 0.29 80 1007.3
20260507192609 76 206 3.0 8.0 0.00 0.97 0.29 80 1007.6
20260507192102 75 196 1.0 7.0 0.00 0.97 0.29 77 1007.2
20260507191828 75 175 0.0 8.0 0.00 0.97 0.29 78 1007.3
20260507191051 74 167 0.0 8.0 0.00 0.97 0.29 77 1007.2
20260507190544 75 192 0.0 5.0 0.00 0.97 0.29 78 1007.4
20260507190039 75 217 0.0 7.0 0.00 0.97 0.29 78 1007.6
20260507185533 75 278 0.0 7.0 0.00 0.97 0.29 75 1007.6
20260507185026 76 288 1.0 6.0 0.00 0.97 0.29 77 1007.6
20260507184521 76 296 2.0 11.0 0.00 0.97 0.29 76 1007.5
20260507184014 76 271 2.0 11.0 0.00 0.97 0.29 74 1007.9
20260507183508 76 196 1.0 8.0 0.00 0.97 0.29 74 1007.8
20260507183002 76 222 2.0 10.0 0.00 0.97 0.29 72 1007.9
20260507182727 76 277 2.0 10.0 0.00 0.97 0.29 73 1007.8
20260507181950 76 213 2.0 9.0 0.00 0.97 0.29 78 1007.6
20260507181445 75 281 2.0 9.0 0.00 0.97 0.29 77 1007.7
20260507180939 75 195 2.0 9.0 0.00 0.97 0.29 74 1007.6
20260507180436 75 288 2.0 9.0 0.00 0.97 0.29 77 1007.7
20260507175936 75 232 1.0 9.0 0.00 0.97 0.29 79 1007.7
20260507175435 75 202 2.0 8.0 0.00 0.97 0.29 79 1007.7
20260507175204 74 206 3.0 12.0 0.00 0.97 0.29 76 1007.8
20260507174432 74 179 3.0 12.0 0.00 0.97 0.29 81 1007.9
20260507173933 74 167 3.0 10.0 0.00 0.97 0.29 79 1007.9
20260507173433 74 214 2.0 8.0 0.00 0.97 0.29 80 1007.9
20260507172934 73 228 1.0 6.0 0.00 0.97 0.29 86 1007.8
20260507172430 73 211 2.0 9.0 0.00 0.97 0.29 84 1007.8
20260507171928 72 189 3.0 9.0 0.00 0.97 0.29 83 1007.9
20260507171431 72 183 3.0 8.0 0.00 0.97 0.29 83 1008.0
20260507170930 72 191 2.0 8.0 0.00 0.97 0.29 83 1008.1
20260507170427 72 163 1.0 8.0 0.00 0.97 0.29 86 1008.4
20260507165924 72 226 3.0 11.0 0.00 0.97 0.29 89 1008.6
20260507165425 71 207 3.0 11.0 0.00 0.97 0.29 85 1008.6
20260507164925 71 252 2.0 9.0 0.00 0.98 0.29 88 1008.8
20260507164657 71 205 4.0 11.0 0.00 0.99 0.29 87 1008.7
20260507163920 70 190 4.0 11.0 0.00 1.00 0.29 89 1008.6
20260507163414 70 205 3.0 9.0 0.00 1.01 0.29 89 1008.6
20260507162913 70 196 1.0 9.0 0.00 1.02 0.29 88 1008.3
20260507162413 69 187 2.0 9.0 0.00 1.02 0.29 92 1008.5
20260507161912 69 182 3.0 10.0 0.00 1.03 0.29 89 1008.6
20260507161412 69 167 3.0 12.0 0.00 1.05 0.29 92 1008.8
20260507160910 69 203 2.0 12.0 0.00 1.06 0.29 91 1009.1
20260507160408 69 208 3.0 14.0 0.00 1.06 0.29 93 1009.2
20260507160139 69 172 4.0 14.0 0.00 1.07 0.29 94 1009.3
20260507155408 68 182 3.0 11.0 0.00 1.07 0.29 95 1009.2
20260507154909 68 203 1.0 8.0 0.00 1.07 0.29 97 1009.3
20260507154409 67 204 1.0 6.0 0.00 1.09 0.29 97 1009.2
20260507154138 67 226 0.0 5.0 0.00 1.09 0.29 97 1009.4
20260507153405 67 191 0.0 5.0 0.00 1.09 0.29 97 1009.5
20260507151905 67 221 0.0 5.0 0.00 1.09 0.29 97 1009.4
20260507151404 67 212 1.0 5.0 0.00 1.09 0.29 98 1009.5
20260507150906 67 236 0.0 5.0 0.00 1.09 0.29 97 1009.2
20260507150405 66 251 0.0 5.0 0.00 1.09 0.29 99 1009.2
20260507145905 66 213 1.0 6.0 0.00 1.09 0.29 99 1009.0
20260507145402 66 183 1.0 6.0 0.00 1.09 0.29 99 1008.8
20260507145131 66 220 0.0 0.0 0.00 1.09 0.29 100 1008.7
20260507144402 65 220 0.0 0.0 0.01 1.09 0.29 100 1008.5
20260507143902 65 220 0.0 0.0 0.01 1.09 0.29 100 1008.7
20260507143401 65 219 0.0 4.0 0.02 1.09 0.29 100 1008.8
20260507143133 64 219 0.0 4.0 0.02 1.09 0.29 100 1008.8
20260507142400 65 193 0.0 0.0 0.03 1.09 0.29 100 1009.0
20260507141857 64 193 0.0 0.0 0.03 1.09 0.29 100 1009.2
20260507141356 64 193 0.0 0.0 0.03 1.09 0.29 100 1009.1
20260507140354 64 193 0.0 0.0 0.04 1.09 0.29 100 1009.1
20260507135855 64 193 0.0 0.0 0.05 1.09 0.29 100 1009.4
20260507135353 64 192 0.0 2.0 0.05 1.09 0.29 100 1009.4
20260507134850 64 202 0.0 2.0 0.06 1.09 0.29 100 1009.9
20260507134351 64 237 0.0 0.0 0.05 1.08 0.28 100 1009.9
20260507133844 64 241 0.0 0.0 0.05 1.08 0.28 100 1010.0
20260507133339 64 239 0.0 0.0 0.04 1.07 0.27 100 1010.3
20260507132833 64 238 0.0 0.0 0.04 1.07 0.27 100 1010.2
20260507132326 64 238 0.0 0.0 0.04 1.06 0.26 100 1009.9
20260507131315 64 238 0.0 0.0 0.03 1.05 0.26 100 1009.5
20260507130809 64 238 0.0 0.0 0.03 1.05 0.25 100 1009.3
20260507130303 64 238 0.0 0.0 0.03 1.05 0.25 100 1009.3
20260507125756 64 238 0.0 0.0 0.02 1.04 0.24 100 1009.3
20260507125250 64 238 0.0 0.0 0.01 1.03 0.24 100 1009.3
20260507124744 64 238 0.0 0.0 0.02 1.03 0.23 100 1009.5
20260507124239 64 238 0.0 0.0 0.02 1.03 0.23 100 1009.2
20260507123732 64 238 0.0 0.0 0.03 1.03 0.23 100 1009.1
20260507123226 63 276 0.0 0.0 0.03 1.03 0.23 100 1009.1
20260507122721 63 276 0.0 0.0 0.03 1.02 0.23 100 1009.1
20260507122447 63 276 0.0 0.0 0.04 1.02 0.22 100 1009.0
20260507121940 63 276 0.0 0.0 0.04 1.02 0.22 100 1009.0
20260507121203 63 276 0.0 0.0 0.05 1.02 0.22 100 1009.1
20260507120927 63 276 0.0 0.0 0.07 1.02 0.22 100 1009.3
20260507120150 63 276 0.0 0.0 0.08 1.02 0.22 100 1009.3
20260507115645 63 276 0.0 0.0 0.08 1.02 0.22 100 1009.4
20260507115139 63 276 0.0 0.0 0.08 1.02 0.22 100 1009.5
20260507114632 63 276 0.0 0.0 0.07 1.01 0.21 100 1010.2
20260507114359 63 276 0.0 0.0 0.07 1.01 0.21 100 1010.6
20260507113851 63 276 0.0 0.0 0.06 1.00 0.20 100 1010.6
20260507113116 63 276 0.0 0.0 0.06 1.00 0.20 100 1010.6
20260507112609 63 276 0.0 0.0 0.05 0.99 0.19 100 1010.4
20260507112103 63 276 0.0 0.0 0.04 0.98 0.18 100 1010.4
20260507111556 63 276 0.0 0.0 0.05 0.98 0.18 100 1010.3
20260507111051 63 276 1.0 8.0 0.05 0.97 0.17 100 1010.6
20260507110546 63 298 0.0 8.0 0.03 0.95 0.15 100 1011.0
20260507110039 63 213 0.0 0.0 0.03 0.94 0.14 100 1010.6
20260507105533 63 212 0.0 0.0 0.05 0.94 0.14 100 1009.5
20260507105026 63 212 0.0 0.0 0.05 0.94 0.14 100 1009.1
20260507104521 63 212 0.0 0.0 0.05 0.94 0.14 100 1009.2
20260507104016 63 212 0.0 0.0 0.05 0.94 0.14 100 1009.3
20260507103509 63 212 0.0 0.0 0.05 0.94 0.14 100 1009.2
20260507103003 63 212 0.0 0.0 0.05 0.94 0.14 100 1009.4
20260507102457 63 212 0.0 0.0 0.05 0.94 0.14 100 1009.7
20260507101951 63 213 0.0 0.0 0.05 0.94 0.14 100 1009.8
20260507101446 63 213 1.0 8.0 0.04 0.93 0.13 100 1009.9
20260507100940 63 217 1.0 8.0 0.03 0.92 0.12 100 1010.0
20260507100441 63 188 1.0 5.0 0.03 0.92 0.12 100 1009.5
20260507095941 63 200 0.0 5.0 0.01 0.90 0.11 100 1009.8
20260507095709 63 201 0.0 1.0 0.00 0.89 0.09 100 1010.0
20260507095210 63 193 0.0 0.0 0.00 0.89 0.09 100 1009.7
20260507094435 63 194 0.0 0.0 0.00 0.89 0.09 100 1009.2
20260507093429 63 194 0.0 0.0 0.00 0.89 0.09 100 1009.6
20260507092430 63 194 0.0 0.0 0.00 0.89 0.09 100 1009.4
20260507092200 63 194 0.0 0.0 0.00 0.89 0.09 100 1009.4
20260507091432 63 194 0.0 0.0 0.00 0.89 0.09 100 1009.4
20260507090928 63 194 0.0 0.0 0.00 0.89 0.09 100 1009.3
20260507090426 63 191 0.0 0.0 0.01 0.89 0.09 100 1009.2
20260507085927 63 191 0.0 0.0 0.01 0.89 0.09 100 1009.2
20260507085427 63 191 0.0 5.0 0.01 0.89 0.09 100 1009.4
20260507084922 63 191 0.0 5.0 0.01 0.89 0.09 100 1009.3
20260507084422 63 175 0.0 5.0 0.01 0.89 0.09 100 1009.5
20260507083923 63 171 0.0 5.0 0.01 0.89 0.09 100 1009.7
20260507083423 63 236 0.0 0.0 0.01 0.89 0.09 100 1009.8
20260507082923 63 236 0.0 0.0 0.01 0.89 0.09 100 1009.7
20260507082422 63 236 0.0 0.0 0.01 0.89 0.09 100 1009.7
20260507081921 64 236 0.0 0.0 0.01 0.89 0.09 100 1010.5
20260507081422 63 236 0.0 0.0 0.01 0.89 0.09 100 1010.4
20260507080922 63 236 0.0 0.0 0.01 0.89 0.09 100 1010.1
20260507080418 64 236 0.0 0.0 0.00 0.88 0.08 100 1010.2
20260507075919 64 236 0.0 0.0 0.00 0.88 0.08 100 1010.3
20260507075418 64 236 0.0 0.0 0.00 0.88 0.08 100 1010.6
20260507074918 64 236 0.0 0.0 0.00 0.88 0.08 100 1010.3
20260507074419 63 236 1.0 5.0 0.00 0.88 0.08 100 1010.0
20260507073919 63 236 1.0 5.0 0.00 0.88 0.08 100 1009.7
20260507073418 63 192 0.0 5.0 0.00 0.88 0.08 100 1009.3
20260507072918 63 160 0.0 0.0 0.01 0.88 0.08 100 1009.5
20260507072417 63 196 0.0 0.0 0.01 0.88 0.08 100 1009.7
20260507071420 63 182 0.0 0.0 0.02 0.88 0.08 100 1010.1
20260507070915 63 182 0.0 0.0 0.02 0.88 0.08 100 1010.0
20260507070414 63 182 0.0 0.0 0.02 0.88 0.08 100 1009.8
20260507070140 64 240 0.0 0.0 0.03 0.88 0.08 100 1010.2
20260507065402 63 240 0.0 0.0 0.04 0.88 0.08 100 1010.4
20260507064856 64 240 0.0 0.0 0.05 0.88 0.08 100 1010.5
20260507064350 64 240 0.0 0.0 0.05 0.88 0.08 100 1010.7
20260507064116 64 240 0.0 0.0 0.05 0.88 0.08 100 1010.8
20260507063338 64 240 0.0 0.0 0.04 0.87 0.08 100 1009.9
20260507062832 64 250 0.0 0.0 0.05 0.87 0.07 100 1011.2
20260507062325 64 250 0.0 3.0 0.05 0.87 0.07 100 1011.2
20260507062051 64 250 0.0 3.0 0.05 0.87 0.07 100 1011.0
20260507061314 64 241 0.0 0.0 0.04 0.86 0.06 100 1010.5
20260507060807 64 241 0.0 0.0 0.04 0.86 0.06 100 1010.2
20260507060300 64 242 0.0 0.0 0.04 0.86 0.06 100 1011.7
20260507060027 64 242 0.0 0.0 0.04 0.85 0.05 100 1012.2
20260507055247 64 242 0.0 0.0 0.03 0.84 0.04 100 1012.3
20260507055013 64 242 0.0 0.0 0.02 0.83 0.03 100 1012.4
20260507054508 64 242 0.0 0.0 0.03 0.83 0.03 100 1012.5
20260507054002 64 242 0.0 0.0 0.03 0.83 0.03 100 1012.5
20260507053224 64 242 0.0 1.0 0.03 0.83 0.03 100 1012.5
20260507052719 64 242 0.0 1.0 0.02 0.82 0.02 100 1012.2
20260507052211 64 244 0.0 0.0 0.02 0.82 0.02 100 1012.5
20260507051705 64 244 0.0 0.0 0.02 0.82 0.02 100 1012.2
20260507051200 64 244 0.0 0.0 0.02 0.82 0.02 100 1012.1
20260507050654 64 243 0.0 0.0 0.02 0.82 0.02 100 1012.7
20260507050148 64 243 0.0 0.0 0.02 0.82 0.02 100 1012.3
20260507045642 64 243 0.0 0.0 0.01 0.81 0.01 100 1011.9
20260507045136 64 271 0.0 0.0 0.01 0.81 0.01 100 1012.8
20260507044630 64 271 0.0 0.0 0.00 0.80 0.00 100 1012.9
20260507044124 64 271 0.0 0.0 0.00 0.80 0.00 100 1012.6
20260507043618 64 271 0.0 0.0 0.00 0.80 0.00 100 1013.3
20260507043111 64 234 0.0 0.0 0.00 0.80 0.00 100 1012.7
20260507042838 64 234 0.0 0.0 0.00 0.80 0.00 100 1012.2
20260507042059 64 234 0.0 0.0 0.00 0.80 0.00 99 1012.3
20260507041824 64 234 0.0 0.0 0.00 0.80 0.00 100 1012.5
20260507041048 64 234 0.0 0.0 0.00 0.80 0.00 100 1012.3
20260507040541 64 234 0.0 0.0 0.00 0.80 0.00 99 1012.1
20260507040036 64 234 0.0 0.0 0.00 0.80 0.00 99 1011.9
20260507035530 64 234 0.0 0.0 0.00 0.80 0.80 99 1012.1
20260507035025 64 234 0.0 0.0 0.00 0.80 0.80 99 1012.3
20260507033526 64 234 0.0 0.0 0.00 0.80 0.80 99 1012.1
20260507033025 64 234 0.0 0.0 0.01 0.80 0.80 99 1011.9
20260507032526 64 234 0.0 0.0 0.03 0.80 0.80 99 1012.3
20260507032023 64 234 0.0 0.0 0.06 0.80 0.80 99 1012.3
20260507031523 64 234 0.0 0.0 0.09 0.80 0.80 99 1012.2
20260507031022 64 234 0.0 0.0 0.09 0.80 0.80 99 1011.8
20260507030521 64 234 0.0 0.0 0.11 0.80 0.80 99 1011.7
20260507030019 64 234 0.0 0.0 0.11 0.80 0.80 99 1011.4
20260507025517 64 234 0.0 0.0 0.11 0.80 0.80 99 1011.5
20260507025018 64 254 0.0 0.0 0.11 0.80 0.80 99 1011.4
20260507024750 65 257 1.0 4.0 0.12 0.80 0.80 99 1011.8
20260507024018 65 257 1.0 4.0 0.12 0.80 0.80 99 1011.4
20260507023517 65 296 0.0 4.0 0.12 0.80 0.80 99 1011.7
20260507023015 65 159 0.0 3.0 0.11 0.79 0.79 99 1010.2
20260507022514 65 317 0.0 0.0 0.10 0.77 0.77 99 1012.6
20260507022246 65 317 0.0 4.0 0.08 0.74 0.74 99 1014.1
20260507021509 65 265 0.0 4.0 0.06 0.71 0.72 99 1014.2
20260507021234 65 232 1.0 6.0 0.05 0.70 0.70 99 1013.6
20260507020729 65 232 1.0 6.0 0.05 0.69 0.69 99 1013.7
20260507015951 65 249 0.0 0.0 0.05 0.69 0.69 99 1013.3
20260507015444 65 249 0.0 0.0 0.08 0.69 0.69 99 1012.7
20260507014939 65 249 0.0 0.0 0.11 0.69 0.69 99 1013.0
20260507014705 65 249 0.0 2.0 0.12 0.68 0.69 99 1013.3
20260507013926 65 254 0.0 2.0 0.13 0.68 0.68 99 1013.1
20260507013424 65 282 0.0 0.0 0.13 0.68 0.68 99 1012.7
20260507012922 65 282 0.0 0.0 0.13 0.68 0.68 99 1012.3
20260507012422 65 309 0.0 0.0 0.12 0.67 0.67 99 1012.4
20260507012153 65 309 0.0 0.0 0.10 0.65 0.66 99 1012.7
20260507011422 65 310 0.0 0.0 0.12 0.65 0.65 99 1012.3
20260507010420 65 311 0.0 0.0 0.15 0.64 0.64 99 1011.9
20260507005919 66 311 0.0 0.0 0.15 0.64 0.64 99 1012.1
20260507005419 66 311 0.0 0.0 0.12 0.61 0.61 99 1012.3
20260507004919 66 310 0.0 0.0 0.09 0.58 0.58 99 1012.7
20260507004420 66 310 0.0 0.0 0.08 0.56 0.56 99 1012.8
20260507003917 66 236 0.0 0.0 0.08 0.55 0.55 99 1012.6
20260507003415 66 184 0.0 0.0 0.10 0.55 0.55 98 1011.8
20260507002916 66 184 0.0 0.0 0.12 0.55 0.55 98 1011.8
20260507002416 66 184 0.0 0.0 0.14 0.55 0.55 98 1011.8
20260507001916 66 184 0.0 0.0 0.17 0.55 0.55 98 1011.9
20260507001415 66 184 0.0 1.0 0.18 0.53 0.54 98 1012.2
20260507000915 66 178 0.0 1.0 0.23 0.51 0.52 98 1012.4
20260507000417 66 257 0.0 0.0 0.23 0.49 0.49 98 1012.5
20260506235917 66 257 0.0 0.0 0.25 0.49 0.49 98 1011.9
20260506235411 66 257 0.0 0.0 0.30 0.49 0.49 98 1011.5
20260506235140 66 257 0.0 0.0 0.31 0.49 0.49 98 1011.9
20260506234410 66 257 0.0 0.0 0.30 0.48 0.48 98 1011.9
20260506233912 66 230 0.0 0.0 0.30 0.47 0.47 97 1012.3
20260506233407 67 230 0.0 0.0 0.28 0.45 0.45 98 1012.3
20260506232905 67 230 0.0 0.0 0.27 0.43 0.43 97 1012.6
20260506232406 67 242 0.0 0.0 0.26 0.41 0.41 97 1012.7
20260506231905 67 234 0.0 4.0 0.24 0.38 0.38 97 1012.7
20260506231634 67 200 0.0 4.0 0.22 0.35 0.36 96 1012.5
20260506230902 67 285 0.0 3.0 0.16 0.28 0.29 96 1012.5
20260506230403 67 228 1.0 6.0 0.14 0.26 0.27 96 1012.3
20260506225901 67 227 1.0 11.0 0.12 0.24 0.25 95 1012.1
20260506225400 68 265 1.0 11.0 0.07 0.19 0.20 95 1011.9
20260506224901 68 211 1.0 7.0 0.06 0.18 0.18 95 1012.1
20260506224357 68 223 0.0 5.0 0.06 0.18 0.18 95 1011.9
20260506223857 69 198 0.0 0.0 0.05 0.17 0.17 94 1011.7
20260506223358 69 202 0.0 5.0 0.05 0.17 0.17 93 1011.5
20260506222857 69 201 0.0 5.0 0.04 0.16 0.16 92 1011.4
20260506222351 70 221 1.0 7.0 0.03 0.15 0.15 91 1011.5
20260506221846 71 207 1.0 7.0 0.01 0.13 0.14 89 1011.6
20260506221340 71 198 0.0 1.0 0.01 0.13 0.13 88 1011.9
20260506220834 71 220 0.0 3.0 0.00 0.12 0.12 88 1011.6
20260506220054 73 216 0.0 5.0 0.00 0.12 0.12 84 1011.4
20260506214303 74 242 0.0 7.0 0.00 0.12 0.12 81 1012.1
20260506213757 74 224 1.0 7.0 0.00 0.12 0.12 81 1011.8
20260506213253 74 193 1.0 7.0 0.00 0.12 0.12 81 1011.5
20260506212746 74 202 1.0 5.0 0.00 0.12 0.12 81 1011.5
20260506212510 74 198 1.0 5.0 0.00 0.12 0.12 81 1011.5
20260506211734 74 224 1.0 4.0 0.00 0.12 0.12 81 1011.6
20260506211508 74 213 1.0 5.0 0.00 0.12 0.12 82 1011.5
20260506210734 74 217 0.0 5.0 0.00 0.12 0.12 81 1011.5
20260506210233 74 214 0.0 4.0 0.00 0.12 0.12 81 1011.7
20260506205731 74 218 0.0 5.0 0.00 0.12 0.12 81 1011.8
20260506205230 74 243 1.0 11.0 0.00 0.12 0.12 81 1011.9
20260506204729 74 201 1.0 11.0 0.00 0.12 0.12 81 1011.9
20260506204229 74 222 3.0 14.0 0.00 0.12 0.12 81 1011.9
20260506203726 74 198 3.0 14.0 0.00 0.12 0.12 79 1011.9
20260506203226 74 175 3.0 13.0 0.00 0.12 0.12 79 1011.9
20260506202955 74 232 3.0 13.0 0.00 0.12 0.12 79 1011.9
20260506202226 75 199 2.0 14.0 0.00 0.12 0.12 79 1012.1
20260506201725 75 250 2.0 14.0 0.00 0.12 0.12 80 1012.1
20260506201226 75 193 2.0 8.0 0.00 0.12 0.12 81 1012.2
20260506200724 74 235 2.0 8.0 0.00 0.12 0.12 81 1012.1
20260506200458 73 171 3.0 13.0 0.00 0.12 0.12 82 1012.2
20260506195956 73 237 4.0 13.0 0.00 0.12 0.12 82 1012.3
20260506195228 73 213 3.0 14.0 0.00 0.12 0.12 82 1012.4